Content
SEND FEEDBACK

Daily
Averages
Monthly
Summary
United States of America

GRAFTON, ILLINOIS


Home > North America > United States > Illinois
Elevation: 400 feet     Latitude: 38 58N     Longitude: 090 26W

WEATHER
 
SELECT A DAY
Number of Records: 166,530;   Date Range: 10/8/98 - 7/23/14
 
SHARE

PRINT THIS DATA

[ ← Previous Day ]
WEATHER ALMANAC - MAY 17, 2013
[ Next Day → ]
[ °C ]   °F
Weather ElementAverageHighLow
Temperature69.5 °F75.9 °F (11:54 am)62.1 °F (3:54 am)
Dewpoint63.4 °F66.9 °F (3:54 pm)57.9 °F (1:54 am)
Humidity81.1 %93 % (9:54 pm)64 % (11:54 am)
Barometer29.93 in29.95 in (8:54 am)29.90 in (3:54 am)
Wind Speed7.3 mph11.5 mph (1:49 pm)
Weather ElementAverage
Visibility7.6 mi
Wind DirectionESE (118.8 °)

Weather ElementTotal
Precipitation0.37 in
Cooling Degree Days4 (Base 65)
Growing Degree Days19 (Base 50)
Averaged from 26 records on May 17, 2013
WEATHER CONDITIONS BREAKOUT
WIND DIRECTION BREAKOUT
WEATHER BY HOUR - MAY 17, 2013
[ °C ]   °F
Local TimeTemperatureDewpointHumidityBarometerVisibilityWind DirectionWind SpeedGust SpeedPrecipitationEventsConditions
1:54 AM64.0 °F57.9 °F80 %29.91 in10.0 miEast (80°)4.6 mphOvercast
2:54 AM64.0 °F59.0 °F84 %29.91 in10.0 miEast (90°)4.6 mphClear
3:54 AM62.1 °F59.0 °F90 %29.90 in8.0 miEast (80°)5.8 mphClear
4:54 AM64.0 °F60.1 °F87 %29.91 in9.0 miEast (90°)4.6 mphOvercast
5:54 AM64.9 °F60.1 °F84 %29.93 in10.0 miESE (110°)3.5 mphOvercast
7:54 AM69.1 °F60.1 °F73 %29.93 in9.0 miESE (110°)9.2 mphOvercast
8:54 AM69.1 °F60.1 °F73 %29.95 in9.0 miCalmOvercast
9:54 AM72.0 °F62.1 °F71 %29.94 in10.0 miESE (120°)4.6 mph0.00 inOvercast
10:54 AM73.0 °F62.1 °F68 %29.95 in10.0 miSSE (160°)10.4 mphOvercast
11:54 AM75.9 °F63.0 °F64 %29.94 in10.0 miSE (140°)9.2 mphOvercast
12:54 PM75.0 °F63.0 °F66 %29.93 in10.0 miESE (110°)10.4 mphOvercast
1:49 PM69.8 °F66.2 °F88 %29.94 in6.0 miSW (220°)11.5 mph0.00 inRainLight Rain
2:03 PM69.8 °F66.2 °F88 %29.95 in2.5 miSSW (210°)11.5 mph0.03 inRainLight Rain
2:06 PM69.8 °F66.2 °F88 %29.94 in4.0 miSSW (200°)11.5 mph0.03 inRainLight Rain
2:27 PM69.8 °F66.2 °F88 %29.95 in1.8 miSSE (160°)10.4 mph0.08 inRainRain
2:38 PM69.8 °F66.2 °F88 %29.94 in3.0 miSE (130°)5.8 mph0.11 inRainLight Rain
2:54 PM70.0 °F66.0 °F87 %29.93 in6.0 miEast (80°)9.2 mph0.12 inRainLight Rain
3:54 PM75.0 °F66.9 °F76 %29.91 in10.0 miESE (110°)9.2 mph0.00 inMostly Cloudy
4:54 PM73.9 °F66.0 °F76 %29.91 in9.0 miESE (120°)9.2 mphMostly Cloudy
5:54 PM73.0 °F64.9 °F76 %29.90 in8.0 miESE (110°)9.2 mphOvercast
6:54 PM73.0 °F64.9 °F76 %29.90 in9.0 miESE (120°)6.9 mph0.00 inOvercast
7:54 PM72.0 °F64.9 °F78 %29.91 in7.0 miESE (110°)5.8 mphMostly Cloudy
8:54 PM69.1 °F64.9 °F87 %29.92 in7.0 miEast (100°)5.8 mphScattered Clouds
9:54 PM66.9 °F64.9 °F93 %29.94 in6.0 miEast (90°)4.6 mphClear
10:54 PM66.9 °F64.0 °F90 %29.95 in6.0 miESE (110°)6.9 mphClear
11:54 PM66.0 °F63.0 °F90 %29.95 in6.0 miSE (130°)5.8 mphClear
Hourly data recorded from KSET, located miles away from Grafton, Illinois







STORIES FROM OUR PARTNERS